NOAA 16 DEB, 41401

Orbit data source: Space-Track

NOAA 16 DEB, 41401 is space debris in SSO originally from a launch on Thu, 21 Sep 2000 UTC launched from the Air Force Western Test Range (AFWTR). Debris objects in space refer to the collection of defunct objects orbiting the Earth. Examples of debris include non-operational satellites, rocket bodies, and fragments generated from explosions, collisions, or faulty payload assembly.

Loading next visibility...
Identifier
41401, 2000-055KE
Orbit
SSO
Country
Flag of USUS
Related business
Manufacturer
Unknown
Mission
Spacecraft
Bus & Motor
Unknown
Mass
Unknown
Launch date (UTC)
2000-09-21 (26 years ago)
Launch vehicle
Unknown
Launch site
Air Force Western Test Range (AFWTR)
Object type
Payload
Rocket body
Debris
Shape & HBR
Unknown shape, 0.1 m
Radar Cross Section
Medium (>0.1 m² and <1 m²)

Expand to show TLE details & history
Last TLE update: 1 week ago

TLE from 1 week ago
0 NOAA 16 DEB
1 41401U 00055KE  26164.34217302  .00003104  00000-0  13619-2 0  9991
2 41401  98.6616 199.0728 0019656 182.7160 177.3915 14.24225524532965
Epoch: 2026-06-13T08:12Z
TLE epoch observation values (Epoch: 2026-06-13T08:12:43.748Z)
Latitude
-0.00008°
Longitude
174.23189°
Altitude
828.139 km
Speed
7.432 km/s
True Right ascension
13h 16m 17s
True Declination
0° 00' 00"
Sunlit
Object was in daylight at epoch
Visualization orbit readout
Latitude
Unknown
Longitude
Unknown
Altitude
Unknown
Speed
Unknown
Apparent Right ascension
Unknown
Apparent Declination
Unknown
Sunlit
N/A
Visualization observer readout
Local Sidereal Time
21:38:29
Azimuth
Unknown
Elevation
Unknown
Doppler factor
Unknown
Orbital elements
Apogee altitude
822.374 km
Perigee altitude
794.123 km
Semi-major axis
7,186.385 km
Eccentricity
0.00197
Inclination
98.6616°
RAAN
199.0728°
Arg. of periapsis
182.716°
True anomaly
177.40173°
Mean anomaly
177.3915°
Eccentric anomaly
177.39662°
Mean motion
3.56268 °/min
Orbital period
101.05 mins
BSTAR
0.0013619
Loading maneuver chart data...
Computing Atmospheric mass density...
Loading historical data...
Loading historical data...
Loading historical data...
Loading historical data...
Loading historical data...
Loading historical data...
Loading historical data...

Documentation

Showing up to 5 results
|